Theta_e
355 355 355 356 356 356 356 355 355 355 355 355 354 354 353 352 352 351 351 351 351 351 350 350 350 350 349 348 347 349 351 351 352 353 353 353 352 352 349 344 341 340 339 337 337 337 337 337 338 339 338 335 334 335 336 335 335 334 334 334 333 332 333 337 338 339 340 336 333 334 332 331 334 333 333 336 335 332 331 330 329 328 329 331 332
355 355 355 355 356 356 355 355 355 355 355 355 355 354 353 352 352 351 352 351 351 351 351 350 350 350 350 348 345 346 350 351 352 353 353 353 352 351 350 346 342 339 339 339 338 337 336 336 338 339 338 336 334 336 337 336 336 336 335 334 334 334 332 336 338 339 340 338 335 334 332 330 334 334 333 335 336 332 330 329 329 330 330 332 334
355 354 355 355 356 356 356 356 355 355 355 355 355 355 354 353 352 352 352 352 351 351 351 351 350 350 350 348 346 346 349 351 352 353 352 352 352 352 350 348 344 341 340 340 340 339 337 337 338 339 338 337 335 336 337 337 336 337 337 335 334 335 333 334 338 339 339 340 338 337 335 332 333 334 332 331 331 330 329 330 331 331 331 331 333
354 355 355 355 356 356 356 356 356 355 355 355 355 355 354 354 353 352 352 353 353 351 351 351 351 350 350 349 348 347 348 351 352 352 352 352 352 352 350 349 346 344 342 341 341 341 340 339 339 339 339 337 336 336 336 337 336 336 337 336 334 335 335 332 335 337 339 340 339 337 337 336 335 334 332 330 331 331 330 331 332 332 331 330 331
353 354 354 354 355 356 356 356 356 355 355 355 355 355 354 355 354 353 353 354 353 352 351 351 351 351 350 349 348 348 349 350 352 352 352 352 352 352 351 350 348 346 344 343 342 342 342 342 341 340 339 338 338 338 337 336 336 336 337 338 335 335 336 334 333 335 337 339 340 338 336 336 336 334 332 333 335 334 332 332 331 330 329 330 330
353 354 354 354 355 356 356 356 356 356 355 355 355 355 355 355 355 354 354 353 354 353 352 352 351 351 351 350 349 348 349 350 351 351 352 352 352 352 351 350 349 348 346 345 344 342 342 343 342 342 340 339 339 339 338 337 337 336 337 338 337 336 336 335 334 335 338 339 340 340 338 336 337 336 334 334 336 337 337 334 331 328 328 329 331
352 353 354 353 355 356 356 356 356 356 356 356 355 355 355 355 355 355 354 354 354 354 353 352 351 351 350 350 349 349 350 351 351 351 351 352 352 352 351 350 350 348 347 347 345 344 343 342 342 342 341 340 339 339 339 338 337 337 336 337 338 337 338 338 336 337 339 340 340 340 340 338 338 338 336 335 335 336 337 336 334 333 331 329 330
353 353 353 354 355 356 356 356 357 356 356 356 356 356 355 355 355 355 355 354 355 355 354 353 352 352 351 351 350 350 351 351 351 351 351 351 352 351 351 350 350 349 348 347 346 345 344 343 342 342 341 340 339 339 339 339 338 337 336 336 337 338 339 340 340 339 340 341 340 340 340 340 339 338 337 336 335 336 335 334 336 337 335 333 331
353 353 353 354 355 355 355 356 357 356 356 356 356 356 356 356 355 355 355 355 355 355 355 354 353 352 352 351 351 351 352 352 351 351 351 351 352 351 351 350 349 349 348 347 346 345 344 344 342 341 341 340 340 340 339 339 338 338 337 336 337 338 339 341 341 341 341 341 341 341 341 341 340 339 338 337 336 337 336 334 336 337 336 335 331
352 353 354 354 353 353 354 355 357 357 356 356 356 356 356 356 356 356 355 355 355 355 355 355 355 354 352 352 352 353 353 352 351 351 351 351 351 351 351 350 349 349 348 347 346 345 345 344 343 342 341 340 340 340 340 340 338 338 337 337 337 337 339 341 341 341 341 341 341 341 341 341 340 340 339 338 336 336 337 336 336 336 335 335 333
352 352 353 353 352 352 353 355 356 356 356 356 356 356 357 357 356 356 356 356 355 355 355 355 355 355 354 353 354 354 354 353 352 351 351 351 351 351 350 350 349 349 348 347 346 345 345 344 343 342 341 341 341 341 340 340 339 338 337 337 337 337 339 340 341 341 341 341 341 341 340 340 340 340 339 338 336 336 337 336 335 335 335 334 335
352 352 353 353 352 353 354 355 355 356 356 357 357 356 356 357 357 357 357 356 356 355 355 356 355 356 355 355 355 355 354 353 352 351 351 351 351 351 350 350 349 348 348 347 346 346 345 344 343 342 342 342 341 341 340 340 339 338 338 337 336 336 337 338 339 340 341 341 340 341 340 340 341 340 338 338 337 336 335 335 335 334 334 334 335
351 352 353 353 353 353 355 356 356 356 356 356 357 357 357 357 358 358 358 357 357 357 356 356 356 356 355 356 356 355 354 353 352 351 351 351 350 351 350 350 349 349 348 347 347 346 345 345 343 343 343 343 342 341 340 340 339 338 338 337 337 336 336 336 337 338 339 340 340 340 340 339 340 340 338 336 335 335 335 335 334 333 333 333 333
351 353 353 353 353 354 355 356 357 358 358 357 358 358 358 358 358 358 358 358 358 358 357 357 357 356 356 356 356 356 355 354 352 351 351 351 351 350 350 350 349 349 348 348 347 347 346 345 344 344 343 342 341 340 340 341 340 340 338 337 336 336 336 336 336 336 336 337 339 339 339 339 339 338 336 334 333 333 334 333 332 332 332 332 332
352 353 354 354 355 356 356 358 358 359 358 358 358 358 358 358 358 358 359 359 359 359 358 357 358 357 357 356 356 356 355 354 353 352 351 351 351 350 349 349 349 349 348 348 348 347 347 346 345 345 344 343 342 341 341 341 341 342 341 340 338 338 338 337 336 336 336 336 337 338 338 338 337 335 334 333 331 331 330 330 331 332 332 332 331
353 353 354 355 357 357 357 359 359 360 360 359 359 359 359 359 359 359 359 359 359 359 358 358 358 358 357 357 356 356 356 354 353 352 351 351 350 350 349 349 350 349 348 348 348 347 347 346 345 345 344 344 343 343 342 341 341 342 343 343 342 341 341 340 338 337 337 337 337 337 337 336 335 334 333 332 330 329 329 330 331 332 332 330 329
353 353 354 357 357 358 358 359 360 360 360 360 360 360 359 360 360 359 359 359 359 358 358 358 358 358 358 357 357 357 356 355 354 352 352 351 350 349 349 349 350 350 349 348 348 347 347 346 346 345 344 344 344 344 342 341 341 342 343 344 343 342 341 340 339 338 337 337 337 336 336 335 333 332 331 330 329 330 331 331 331 330 330 329 328
354 353 355 357 358 357 358 358 359 360 360 360 360 360 360 360 360 360 359 359 359 359 359 359 358 358 358 357 357 357 357 356 354 353 352 351 350 350 348 349 350 351 350 349 348 348 347 347 346 345 344 345 345 344 342 341 340 342 343 344 343 341 340 340 339 338 337 337 337 335 335 334 332 331 330 330 330 330 331 331 330 328 328 327 326
354 354 355 357 356 355 357 357 357 359 360 360 360 361 361 360 360 360 359 359 359 359 359 358 359 359 359 358 357 357 357 357 355 354 353 352 351 350 349 349 351 351 351 350 349 349 348 347 346 345 344 345 345 344 342 341 340 341 342 343 342 341 340 339 338 337 336 336 336 335 334 332 331 331 331 332 331 330 329 330 329 327 327 325 324
353 355 356 356 355 354 356 357 357 358 360 360 360 360 361 360 360 360 360 359 359 359 359 359 359 359 359 358 358 356 357 357 356 354 354 352 352 350 349 350 351 351 351 351 350 350 349 347 346 345 344 344 344 343 342 341 340 340 341 342 342 341 341 339 337 337 336 335 335 334 333 332 331 331 331 330 329 327 327 328 327 325 324 323 322
353 354 355 355 355 356 357 356 357 357 358 359 360 361 360 360 360 360 360 360 360 360 359 359 359 359 359 359 358 358 357 357 356 355 354 353 352 351 350 350 351 351 351 351 350 350 349 348 347 345 344 343 343 343 342 342 340 339 340 340 340 340 340 338 337 336 335 334 333 333 332 332 331 330 329 328 327 327 326 325 323 323 322 320 320
352 353 354 355 357 357 358 357 358 358 358 359 360 361 361 361 361 361 361 360 360 360 360 360 360 360 360 359 359 358 358 357 356 355 354 354 352 352 351 350 351 351 351 352 351 350 349 348 347 346 344 343 342 342 342 341 339 339 339 339 338 338 338 337 336 335 334 333 332 331 331 330 329 328 328 327 327 325 324 323 321 321 320 318 318
353 353 354 356 358 358 359 359 358 359 361 360 360 361 362 361 361 362 362 361 362 361 361 361 360 360 360 360 359 359 358 357 356 355 354 354 353 353 352 351 351 350 351 352 351 350 349 348 347 346 344 342 342 342 341 340 339 338 338 338 337 337 336 336 335 334 333 332 331 331 330 330 329 329 328 326 324 323 323 322 320 320 319 319 317
352 354 355 357 358 359 360 359 359 361 361 360 360 362 362 362 362 362 362 362 362 362 361 361 361 360 360 360 359 359 359 358 356 355 355 354 353 353 352 352 351 350 351 351 351 350 349 348 347 345 343 342 342 341 340 339 339 338 338 337 337 336 335 335 334 333 332 331 331 331 331 330 329 328 326 325 323 321 320 320 320 319 319 319 317
352 354 356 358 358 359 361 361 361 362 361 361 362 362 362 362 363 363 362 362 362 361 361 361 361 361 361 360 360 359 359 358 356 355 354 354 353 353 353 352 352 351 350 350 350 349 349 348 346 344 343 342 341 340 339 338 338 338 337 336 335 335 334 334 333 332 331 330 330 331 330 329 328 326 323 321 319 318 318 319 320 319 318 318 317
356 356 358 358 358 359 361 361 362 363 362 362 363 362 362 363 363 363 362 362 361 362 361 361 361 361 361 361 361 360 359 358 356 354 353 353 353 353 352 352 352 351 349 349 348 348 348 347 345 343 342 341 340 339 338 338 337 337 336 335 334 333 333 333 332 331 331 331 331 330 329 327 324 321 318 317 319 320 321 321 321 320 318 318 317
358 359 360 360 359 359 360 360 361 363 363 362 363 362 363 363 363 363 363 362 362 362 361 361 361 361 361 360 360 360 359 358 356 354 352 352 352 352 352 352 351 348 347 347 347 346 346 345 344 342 341 340 339 338 338 337 336 334 334 334 333 332 332 331 331 331 331 331 331 329 327 324 320 318 317 319 321 323 322 321 322 321 319 317 316
359 360 360 359 359 360 360 360 360 361 362 362 362 363 363 363 363 364 363 362 363 362 362 363 362 361 361 361 361 361 359 357 356 354 351 351 352 351 350 349 347 344 344 345 346 345 343 342 341 340 338 337 336 336 335 334 332 332 332 332 331 331 330 330 330 331 331 331 330 327 323 320 319 320 321 321 323 323 321 320 320 320 317 315 314
362 361 360 360 359 358 358 358 358 359 362 362 362 363 363 363 363 364 363 363 362 361 361 362 361 362 361 361 361 362 360 357 356 354 352 351 351 351 348 344 342 342 343 343 343 341 339 337 336 335 334 333 333 332 331 330 329 329 330 330 330 330 330 330 329 330 331 331 328 324 321 319 321 322 322 322 323 323 320 319 319 317 315 314 313
359 358 358 358 358 358 358 357 357 358 359 360 362 363 362 361 361 361 360 359 359 358 357 357 358 359 359 360 362 362 360 358 356 355 352 350 350 352 351 347 342 341 341 342 340 337 334 333 333 333 333 332 331 329 329 328 328 328 328 328 329 329 329 329 329 330 330 328 325 322 321 321 322 322 321 321 324 323 319 318 317 314 313 313 313
355 354 353 353 353 355 356 356 356 356 356 357 358 358 357 357 355 354 355 355 355 355 355 354 355 355 355 356 358 359 360 359 356 353 351 349 349 352 350 345 342 341 341 339 337 334 332 332 332 333 333 332 330 329 329 329 328 328 327 327 328 328 328 329 329 329 328 326 323 322 322 322 321 322 321 322 323 322 318 316 314 312 312 313 312
351 351 350 350 350 351 351 351 352 353 352 352 351 352 352 353 352 350 349 349 349 348 347 348 351 353 355 356 356 356 358 357 355 353 350 349 349 349 345 340 339 341 340 339 336 333 332 333 332 332 332 332 330 330 330 329 329 328 327 327 327 327 328 329 329 328 327 325 322 322 323 322 321 322 322 322 322 321 317 315 313 313 312 312 311
347 347 347 347 347 347 347 347 348 349 349 348 348 348 348 347 347 344 340 338 336 336 335 336 338 341 344 348 352 354 356 356 354 351 349 349 349 345 340 338 340 340 338 337 335 333 333 333 332 332 332 331 331 330 330 330 329 329 328 328 327 327 328 328 328 327 326 324 323 323 323 322 322 322 322 322 321 319 316 314 313 313 312 311 310
343 343 343 344 344 344 345 345 345 345 346 345 344 343 342 341 342 341 339 339 338 336 333 332 329 329 331 335 339 343 349 353 353 350 348 349 348 343 338 337 338 338 337 336 334 333 333 332 331 331 331 331 330 330 329 329 329 328 328 328 328 328 328 327 327 327 325 323 323 323 323 322 322 322 322 321 318 316 315 313 313 312 311 310 310
341 340 340 340 341 342 342 343 343 344 344 343 342 341 341 341 341 340 340 340 339 337 335 330 324 322 324 328 328 330 334 339 343 346 347 345 340 336 333 330 330 333 336 336 335 333 332 331 331 331 331 330 329 328 328 328 328 328 328 328 329 328 328 327 326 326 324 323 324 324 323 323 322 322 321 319 316 314 314 313 312 311 310 310 309
340 339 339 339 340 340 340 341 342 341 341 341 341 341 341 341 340 339 339 337 334 332 329 324 320 320 323 325 326 326 327 329 331 333 336 336 333 331 330 328 329 332 333 333 333 332 331 330 330 330 330 329 327 327 327 328 328 328 328 329 329 328 326 326 325 325 324 325 324 324 323 323 322 320 318 316 314 313 313 312 311 310 309 309 308
339 339 338 338 338 338 338 339 339 339 339 339 339 339 339 339 339 339 338 334 331 328 324 321 321 324 325 326 326 323 321 322 322 320 322 327 331 332 331 330 331 332 331 331 331 331 330 330 330 329 329 328 327 327 328 329 329 329 329 328 327 325 325 325 325 324 324 325 325 324 323 322 320 317 315 314 313 313 312 311 310 309 308 307 306
337 336 337 337 337 336 337 337 338 338 338 339 338 338 338 339 339 339 337 332 329 327 324 322 322 325 326 326 326 322 317 316 316 316 318 325 331 332 332 332 332 332 331 330 330 330 329 329 329 329 329 329 329 329 330 330 329 329 328 326 325 325 325 324 323 323 324 324 323 322 320 318 316 314 313 313 313 311 310 310 309 308 308 307 306
336 335 335 336 336 336 337 338 338 339 339 339 339 338 338 338 339 338 337 335 331 328 327 325 324 325 326 327 330 332 329 324 324 324 326 330 332 331 331 332 331 331 331 330 330 330 330 329 329 330 331 331 330 330 330 330 329 328 326 326 325 324 323 322 321 322 322 321 319 318 316 315 314 313 312 312 312 311 310 309 308 308 308 307 307
337 336 335 336 337 337 338 338 338 339 339 338 338 338 337 337 337 336 336 336 333 330 330 328 326 327 328 329 333 337 334 330 330 331 329 330 331 331 331 331 331 330 331 331 331 332 331 330 331 332 331 331 330 329 329 328 327 326 325 324 322 321 320 320 320 320 319 317 316 315 315 314 313 312 311 311 311 310 309 309 308 308 307 307 307
339 337 336 336 338 339 339 339 338 338 337 337 337 338 337 336 335 334 333 332 330 329 328 327 326 327 328 329 334 336 335 331 331 332 330 329 330 330 330 331 330 330 331 332 332 332 332 332 332 332 330 329 329 328 327 326 325 323 322 320 318 318 318 319 318 317 317 316 315 314 314 314 312 311 311 310 310 309 309 308 308 307 307 307 306
340 339 338 338 338 339 339 339 338 338 337 337 337 337 337 336 335 333 331 329 328 327 326 325 324 325 326 326 331 335 335 332 331 331 331 330 330 330 331 331 331 332 332 333 333 333 333 333 332 330 329 328 327 325 324 323 321 320 319 318 317 317 317 317 316 316 316 315 314 314 313 312 311 310 310 310 309 309 309 308 307 307 307 307 306
339 339 339 338 338 338 338 338 339 338 337 337 337 336 336 336 335 333 331 329 328 328 328 326 325 325 326 326 327 330 331 330 329 330 330 329 330 330 331 331 331 331 332 333 333 334 333 331 329 328 327 326 324 323 321 320 319 318 318 317 317 317 316 316 316 315 315 314 314 313 312 311 310 309 309 309 309 309 308 308 307 307 307 306 306
338 338 338 338 338 338 337 337 338 337 336 336 336 336 337 337 336 334 332 330 329 328 328 327 326 326 326 327 328 328 327 327 327 328 328 328 328 328 328 329 330 330 332 333 334 332 330 329 327 327 325 324 322 321 320 319 319 318 317 316 316 316 316 315 315 314 314 313 313 312 311 310 309 309 309 309 308 308 308 308 307 306 306 305 305
338 338 338 339 338 338 337 337 336 336 336 337 337 336 336 336 336 335 333 331 329 328 327 327 327 327 327 327 328 327 326 326 327 327 327 327 327 326 327 329 330 331 332 333 333 331 329 328 327 326 323 321 321 320 319 319 318 316 315 315 316 316 315 315 315 314 313 313 312 311 311 310 309 309 309 309 309 308 307 307 306 305 305 305 304
335 335 336 336 336 336 336 336 336 336 336 336 337 337 336 335 335 334 333 331 330 328 328 328 328 326 326 326 326 326 326 326 326 326 326 326 326 327 328 330 331 332 332 332 331 330 329 328 326 324 321 320 320 319 319 318 317 315 314 315 315 315 315 315 314 313 313 312 312 311 310 310 309 309 308 308 308 307 307 306 305 304 304 304 304
332 332 333 333 333 333 333 333 334 334 334 335 335 334 333 332 332 331 330 329 328 328 328 329 327 326 325 325 325 325 325 325 325 326 326 328 329 330 330 330 331 331 330 330 330 329 329 328 326 323 321 320 320 319 319 318 316 315 315 315 314 314 315 314 313 312 312 311 311 311 310 309 309 308 307 307 307 306 305 305 304 303 303 303 303
331 331 331 331 331 331 331 331 331 332 332 333 333 332 331 330 330 329 328 327 327 327 328 328 327 325 325 326 327 327 327 327 326 326 327 329 330 330 330 329 329 329 328 328 329 329 328 327 325 323 321 321 320 319 319 318 316 315 315 315 314 314 314 313 313 312 311 310 310 309 309 308 308 307 306 306 305 305 304 304 303 302 302 302 303
328 328 328 328 329 329 329 328 329 329 330 331 330 330 330 329 329 327 326 326 326 328 328 328 327 326 326 326 326 326 326 327 327 327 328 329 329 329 329 329 328 327 326 327 327 328 328 326 324 322 321 321 320 319 318 318 316 315 315 315 315 314 314 313 312 311 310 309 308 307 307 307 307 306 305 304 304 303 303 302 302 302 302 303 304
322 322 322 324 325 327 327 327 326 326 327 328 328 328 328 327 326 325 324 324 324 326 326 326 327 328 327 326 325 325 325 325 325 326 327 327 327 327 328 327 326 325 325 325 326 327 327 326 324 322 321 320 320 319 319 318 317 316 315 315 315 314 313 312 311 310 309 308 306 306 306 306 305 304 303 303 303 303 303 302 301 301 302 303 305
319 319 319 319 320 321 323 323 321 320 321 323 325 325 325 325 325 324 323 323 323 323 323 324 325 327 328 327 326 325 325 325 324 324 324 324 324 325 326 325 324 324 323 324 325 326 326 325 324 322 321 321 320 320 319 318 318 316 316 315 314 313 312 312 311 309 307 305 304 304 304 304 303 303 303 303 303 303 301 300 300 301 302 304 305
Wind_Speed
35 38 38 36 35 37 38 39 39 38 36 36 35 35 37 38 37 36 36 36 35 34 34 34 33 33 32 31 30 30 29 29 29 29 29 28 27 27 27 27 27 26 25 24 24 24 23 22 22 21 19 17 18 18 17 17 16 15 14 14 15 17 15 12 9 8 8 9 10 8 8 9 10 11 9 6 6 7 7 7 8 8 7 6 7
35 38 39 37 38 38 36 36 38 39 36 34 34 34 36 38 39 37 36 36 36 36 35 35 35 34 33 33 33 33 32 31 30 31 31 30 29 29 30 29 29 28 27 26 25 25 24 23 22 21 20 19 18 18 17 18 18 17 17 16 16 16 17 14 10 9 8 8 9 8 9 9 9 11 10 9 8 9 9 8 8 7 7 6 6
35 39 41 40 39 38 35 34 36 38 37 34 33 33 33 36 39 39 37 35 36 37 37 36 36 35 35 35 35 34 34 33 32 32 32 32 32 31 31 31 31 30 30 28 27 26 25 24 23 22 21 21 20 19 18 18 19 19 19 19 18 17 17 16 13 10 9 8 8 7 8 9 10 10 10 11 10 10 10 10 9 8 7 7 6
33 37 40 39 36 36 36 35 35 36 36 34 33 32 31 32 36 39 37 33 34 38 38 37 37 37 36 37 37 36 36 35 34 34 34 33 33 33 33 32 32 32 32 31 29 28 27 26 24 23 23 23 22 22 21 20 21 21 20 20 20 18 18 19 17 14 11 9 9 9 8 9 9 9 10 9 9 9 9 9 9 8 8 8 7
31 34 37 36 34 35 37 36 35 36 36 34 33 33 32 30 32 36 36 32 33 37 39 38 38 38 38 38 38 38 38 37 36 36 35 35 35 35 34 34 33 33 33 33 32 31 30 28 26 25 25 24 24 23 24 23 23 22 21 21 21 20 19 20 20 18 15 12 10 11 12 11 10 11 12 11 9 9 10 11 10 9 9 9 9
32 33 35 34 34 35 37 36 36 37 36 34 33 34 33 31 30 33 36 35 33 34 38 40 40 40 40 40 40 40 40 39 38 37 37 36 36 36 35 35 34 34 34 34 33 32 32 30 28 28 27 27 25 25 26 26 24 24 23 22 22 22 21 21 22 21 18 15 13 12 13 13 11 12 14 14 11 10 10 11 12 12 11 11 10
32 32 34 35 34 35 37 38 37 36 35 35 34 34 34 33 32 33 35 36 34 33 36 40 42 42 42 42 42 42 41 40 39 39 38 37 37 37 36 36 35 35 35 34 33 33 33 32 31 30 30 29 28 27 27 26 25 25 25 23 23 22 20 19 21 20 18 16 15 14 13 14 13 13 14 15 15 13 12 11 10 11 12 12 12
31 32 33 34 33 35 37 38 36 36 36 36 36 34 34 34 33 33 35 36 35 35 36 39 42 43 43 43 43 42 41 41 40 40 40 39 38 37 37 37 36 36 36 35 33 33 32 32 32 31 31 31 30 29 28 27 26 26 26 25 24 23 20 17 18 18 17 16 15 15 13 13 14 14 14 15 14 14 15 13 10 9 9 11 11
33 32 32 34 37 39 39 36 34 36 37 36 37 35 33 33 34 34 36 37 36 35 35 37 41 43 43 43 43 42 41 41 42 41 41 40 39 38 38 38 37 36 36 35 34 34 33 32 32 31 31 31 30 29 28 28 27 27 27 26 25 23 20 17 16 16 16 15 15 14 13 13 13 13 14 16 16 15 14 12 10 8 7 9 12
36 34 33 40 44 44 42 37 34 37 38 38 40 38 34 34 35 37 38 38 35 34 35 36 38 41 43 43 43 41 40 42 42 42 42 41 40 39 38 38 38 38 37 36 34 34 34 34 33 32 31 30 29 29 28 28 28 28 28 27 26 24 21 18 17 17 16 16 15 15 14 14 14 15 15 17 18 15 11 10 9 7 6 8 10
38 38 39 42 43 41 41 39 37 39 40 39 40 40 37 35 36 37 38 37 35 36 38 37 36 36 39 42 40 38 40 42 42 43 43 41 40 40 39 39 39 39 38 37 35 35 34 34 33 32 31 30 30 29 28 28 28 28 28 28 28 27 24 20 18 18 17 16 15 15 15 15 15 16 16 15 15 13 11 9 9 7 6 7 8
37 40 40 38 37 38 39 39 38 39 39 39 40 41 40 36 35 36 36 37 38 38 38 38 36 34 35 37 36 36 39 42 43 43 44 43 41 40 38 38 38 38 39 38 36 35 34 33 32 32 32 31 30 29 29 29 28 28 28 28 28 28 27 25 22 19 18 18 17 16 16 16 15 15 15 13 11 11 9 8 8 7 7 8 8
38 40 38 36 38 41 39 37 38 38 39 39 38 38 38 36 35 35 35 36 37 36 36 36 36 36 34 34 34 33 35 41 44 44 44 44 43 41 37 37 38 39 39 38 37 35 35 32 31 31 33 31 29 28 28 27 27 27 27 27 27 27 28 28 27 24 22 21 20 19 19 18 16 15 14 14 12 9 7 7 6 5 6 8 9
36 37 37 38 41 41 39 38 38 37 37 36 35 35 36 36 36 35 33 34 33 34 35 35 35 37 36 34 34 33 33 38 43 44 44 44 44 43 39 35 36 39 39 39 38 37 36 34 32 32 32 31 29 28 27 25 24 24 25 26 26 26 27 28 28 28 27 25 22 22 21 19 17 15 15 15 14 11 8 7 7 7 7 8 9
33 34 35 36 37 38 38 38 35 34 35 35 34 35 36 36 35 33 32 32 33 33 34 34 34 35 35 33 33 33 34 38 42 43 44 45 43 43 41 36 33 36 38 39 39 38 37 36 34 33 31 30 29 28 27 26 23 20 20 21 23 23 24 25 26 27 27 27 25 22 20 19 18 17 15 13 13 13 11 8 7 6 7 8 10
31 31 31 32 34 35 36 34 31 31 31 32 33 34 35 35 35 33 31 30 31 32 33 34 33 33 33 33 33 33 34 37 40 42 44 44 42 42 43 38 32 32 36 38 39 38 37 36 35 33 31 30 30 28 25 25 23 20 18 17 18 18 19 21 24 24 24 24 24 23 22 21 20 18 16 15 15 14 12 9 7 6 7 9 11
30 31 31 31 32 34 32 30 28 28 29 30 32 33 34 34 33 32 31 30 30 32 33 33 32 32 33 33 33 32 32 36 40 41 42 43 42 42 43 39 32 30 34 38 38 38 37 37 35 34 32 31 30 27 24 23 22 20 18 16 16 16 16 17 19 23 24 22 22 22 21 20 18 15 15 15 15 14 11 9 8 8 8 10 11
29 33 32 30 31 34 34 32 32 31 31 33 34 33 33 32 32 32 32 32 31 32 34 33 32 32 33 34 35 34 31 35 40 40 40 42 42 42 43 38 31 29 32 35 35 36 37 37 35 34 33 32 30 26 23 21 22 21 18 16 16 16 17 15 13 15 18 18 17 16 16 15 15 14 13 12 13 13 11 9 8 9 9 10 10
30 32 30 28 33 38 37 38 40 37 34 35 34 33 32 31 31 31 31 31 30 30 32 33 31 31 32 33 37 37 33 34 38 40 40 41 42 42 42 38 33 31 30 30 30 30 32 35 35 34 33 32 29 25 22 21 22 22 19 16 16 16 16 15 12 10 10 11 10 11 12 12 13 13 12 12 12 12 11 9 8 8 8 7 6
30 27 24 26 33 37 36 38 39 36 35 35 32 31 31 30 30 31 31 31 31 30 32 33 33 34 33 32 34 38 36 34 37 40 41 41 41 42 41 38 35 32 32 30 27 25 25 28 33 35 33 30 28 24 21 21 22 23 20 18 17 16 14 14 13 11 9 9 9 9 9 10 10 11 11 12 12 12 11 9 8 7 7 5 5
23 23 24 27 31 33 34 36 38 38 39 36 30 28 29 29 30 32 31 31 32 33 35 34 33 34 35 33 33 36 37 35 37 40 41 41 43 42 41 41 38 34 32 30 28 27 23 22 27 33 33 30 27 23 21 21 22 22 21 20 19 16 14 13 13 12 10 10 11 10 10 10 10 10 10 11 11 11 11 9 8 7 6 5 4
20 23 26 27 27 28 28 30 34 34 33 31 28 26 28 29 29 30 31 30 32 35 36 34 34 35 34 34 36 37 37 37 40 41 42 42 43 44 44 45 42 36 32 29 28 27 24 22 27 32 32 30 26 23 21 21 22 22 22 20 19 17 15 12 12 13 12 12 12 12 11 11 11 11 11 11 10 10 9 9 8 7 6 5 4
21 23 26 26 25 26 25 27 30 27 25 29 30 27 25 27 27 27 28 28 29 32 34 33 34 34 32 33 37 39 38 39 42 43 43 43 44 45 46 46 44 41 36 31 29 27 23 25 30 32 30 29 25 22 22 22 23 23 22 19 18 17 14 13 14 15 15 14 14 12 11 11 11 11 11 10 9 10 9 8 9 8 6 6 6
20 22 24 25 24 23 23 25 27 25 25 29 30 25 24 25 26 26 28 28 27 29 31 30 31 31 29 28 33 36 37 40 45 46 45 45 45 46 47 46 46 44 38 34 35 33 30 31 33 30 28 27 24 22 23 24 24 24 22 19 19 18 16 15 16 17 16 15 13 11 11 12 11 11 10 9 10 11 11 9 8 8 7 7 7
19 20 21 22 23 22 20 22 25 25 26 28 28 27 26 26 26 27 29 30 30 31 31 29 29 31 30 29 30 31 31 34 40 46 47 47 47 48 49 48 48 46 41 37 38 37 34 32 31 28 26 25 24 24 24 24 24 24 22 21 20 19 17 17 18 17 15 13 12 12 12 12 11 10 12 12 13 12 11 9 7 7 7 8 9
16 18 18 19 21 21 19 20 23 25 26 26 26 27 27 26 26 26 27 30 32 31 30 28 27 27 30 32 30 27 25 26 32 39 44 47 49 50 50 49 49 49 44 38 35 33 32 31 29 27 27 28 28 27 27 25 25 24 23 23 21 18 18 19 19 17 15 13 12 13 12 12 12 13 15 15 13 11 9 8 7 7 7 7 7
10 12 13 14 17 18 19 19 20 21 23 24 24 24 25 25 23 22 25 29 30 28 27 26 25 24 27 30 26 22 25 30 33 37 42 46 49 50 50 51 51 48 42 38 36 34 32 31 29 29 30 30 29 28 27 27 27 25 24 21 19 18 19 20 19 16 14 13 13 13 12 13 14 16 16 14 11 9 9 8 6 6 6 5 6
5 5 6 8 10 13 15 17 18 18 19 22 22 22 22 24 24 24 27 29 28 26 26 28 29 29 30 29 25 21 25 33 38 41 46 50 52 51 50 52 52 46 41 40 39 37 35 33 33 33 33 32 30 28 28 28 26 24 21 18 17 20 21 20 18 15 13 13 14 13 13 15 16 15 14 12 10 9 9 8 6 6 5 4 6
5 4 3 3 5 7 9 13 14 14 15 17 19 18 18 20 22 22 23 24 24 23 22 24 27 29 30 29 26 22 25 35 44 47 47 51 54 54 52 51 50 45 41 41 39 38 38 38 38 36 33 31 29 28 27 26 22 20 18 17 17 21 23 20 16 15 14 14 14 14 15 16 15 13 13 11 10 9 9 9 8 7 5 5 7
8 7 5 4 3 3 4 5 7 8 9 10 11 12 11 13 15 14 14 16 18 19 19 21 23 24 25 28 31 32 37 45 48 46 47 51 55 57 56 54 50 44 41 41 40 39 39 40 41 41 38 33 30 27 25 24 22 20 19 19 17 18 19 17 15 15 16 15 15 14 15 15 14 13 13 11 9 9 9 9 8 7 6 6 8
9 8 7 7 6 5 4 3 3 3 3 3 4 5 5 6 8 8 9 12 15 18 20 23 24 26 27 31 35 39 45 48 44 41 45 51 54 57 57 55 52 48 45 44 39 36 35 34 34 37 38 33 29 27 26 25 24 22 21 20 18 17 16 16 16 17 17 16 15 14 15 15 14 13 12 11 10 9 9 9 8 6 6 7 8
9 9 8 7 7 7 6 6 5 5 5 5 5 6 4 2 2 4 6 8 12 16 19 23 28 33 37 41 42 41 42 43 43 43 46 50 54 56 54 50 49 49 50 46 39 35 35 33 30 32 32 29 27 28 27 26 24 23 22 21 18 16 16 17 18 18 17 16 15 15 15 15 13 12 12 11 10 9 9 9 7 6 6 7 8
9 8 7 7 7 7 7 8 9 9 9 9 9 8 7 6 4 3 4 5 8 10 12 16 22 29 36 43 48 49 47 45 45 46 48 51 55 56 53 53 53 53 51 44 36 32 33 33 33 32 30 27 28 29 27 24 23 22 23 22 20 18 18 17 18 18 17 16 15 15 14 14 13 12 12 11 10 9 9 8 7 6 6 7 7
9 8 7 6 7 7 7 9 10 11 10 10 11 11 10 9 7 6 5 7 12 16 18 20 19 22 28 33 39 47 52 52 51 52 54 57 60 59 55 54 56 56 52 45 37 34 32 31 31 32 30 29 29 27 23 23 23 23 23 23 21 20 19 18 19 19 17 15 15 14 13 13 13 12 12 11 10 10 8 7 7 6 6 7 7
10 10 9 9 9 9 8 8 9 9 9 9 9 9 8 7 6 4 2 4 7 11 16 21 22 20 20 22 26 32 38 43 49 57 62 62 60 57 53 51 48 45 41 38 36 36 36 34 32 33 33 31 28 25 23 25 26 26 26 24 22 21 22 21 20 18 16 14 14 13 13 13 12 12 12 11 10 9 8 7 6 6 6 6 6
9 9 9 9 10 9 9 9 9 8 8 8 7 7 6 6 5 4 3 4 6 8 11 15 16 16 15 15 18 23 28 33 39 50 59 63 62 58 53 47 40 33 29 27 26 27 30 33 34 33 31 30 28 27 25 26 27 28 28 26 25 24 23 21 19 18 15 13 13 13 12 12 12 12 12 11 10 9 8 7 6 6 5 5 5
10 9 9 8 8 9 9 9 8 8 8 8 8 7 7 7 7 5 5 6 6 7 9 10 10 14 18 17 15 15 16 21 28 36 50 63 67 64 55 45 38 33 29 26 25 25 25 29 33 32 29 27 27 27 25 25 28 29 29 28 27 25 22 20 19 19 17 13 12 12 13 12 12 13 12 11 10 9 7 7 6 6 5 4 4
11 10 9 9 9 11 11 9 8 9 9 9 9 9 8 9 9 8 7 7 7 8 11 12 15 21 22 18 20 25 22 12 4 17 30 38 43 47 48 45 42 38 32 27 26 26 25 27 29 30 28 27 27 28 29 29 30 30 29 28 26 24 21 20 19 18 16 13 12 13 13 12 12 13 12 10 9 9 8 7 7 5 4 4 4
12 11 10 10 11 12 12 11 10 10 10 9 9 9 8 8 9 7 7 8 9 10 12 14 18 22 18 14 22 35 37 32 24 13 10 21 30 34 37 38 38 39 36 30 27 26 27 28 29 29 30 30 30 31 32 31 30 30 29 27 25 22 20 19 18 17 15 13 12 13 13 12 12 12 11 10 9 8 8 8 7 6 4 4 5
13 12 11 11 12 11 12 12 11 10 9 8 8 7 7 7 7 6 7 9 9 9 10 11 13 15 14 17 29 38 36 31 28 23 19 22 27 30 32 32 33 35 35 34 33 32 31 32 31 30 29 30 30 30 31 30 30 30 28 26 24 23 20 18 17 16 15 13 13 13 12 11 11 11 11 10 9 8 7 8 7 6 5 5 5
12 12 11 11 11 11 12 12 11 9 8 7 6 6 6 7 7 7 8 8 9 9 9 9 9 9 10 18 29 35 32 29 29 26 21 19 21 25 28 29 30 32 33 33 34 34 33 32 31 30 31 31 30 31 31 30 29 28 27 25 25 22 19 17 16 15 14 13 13 12 11 11 11 11 10 10 8 7 8 8 7 7 6 5 5
12 12 11 11 11 10 10 11 10 9 8 7 7 6 6 7 9 10 9 9 8 8 8 9 10 10 10 15 23 30 30 28 27 26 25 23 23 24 27 28 28 30 32 33 33 33 32 31 30 31 32 32 32 31 30 30 29 28 27 25 23 20 17 16 15 15 14 13 12 12 11 12 11 11 10 9 8 8 8 9 8 7 6 5 5
13 12 12 12 12 11 11 10 9 8 8 7 7 7 7 7 9 10 10 9 7 7 8 9 11 13 13 13 18 24 26 25 23 21 21 21 22 23 25 26 26 27 30 31 31 30 29 29 30 31 32 32 32 31 31 30 29 28 26 24 21 18 17 15 15 15 14 12 12 12 12 12 12 11 9 8 8 8 9 9 9 7 6 5 6
13 12 12 11 11 12 11 10 9 8 7 7 7 7 7 8 8 9 9 8 7 7 7 7 8 11 12 13 15 18 18 18 17 17 16 17 18 18 19 21 23 24 26 28 27 27 27 28 30 31 31 31 30 30 29 28 27 26 25 23 20 18 17 16 15 15 14 13 12 13 13 13 12 11 9 8 8 9 9 9 9 7 6 5 6
12 12 12 11 11 12 12 11 9 8 6 6 6 6 7 8 8 7 8 7 7 6 7 6 7 8 8 9 10 12 13 13 14 15 14 13 13 15 18 21 22 23 25 27 27 26 27 28 30 30 30 30 29 28 27 26 25 24 24 22 20 19 18 16 15 15 14 13 13 13 14 14 13 11 10 9 9 9 9 9 8 7 6 5 6
14 13 13 12 12 12 12 10 9 7 6 5 5 6 6 7 8 7 7 6 5 5 6 6 6 6 7 7 7 8 9 10 12 12 12 12 13 15 19 21 21 22 24 26 26 25 25 27 29 30 31 30 29 27 26 24 24 23 23 22 20 19 18 17 16 16 15 15 13 12 13 13 12 11 11 10 9 9 9 8 7 6 5 6 6
16 15 15 15 14 13 12 11 9 8 7 6 6 7 7 8 8 9 8 7 5 4 4 5 5 5 7 8 8 8 8 9 9 10 11 13 16 17 18 19 19 20 22 23 23 23 23 25 28 30 30 29 28 27 26 25 24 24 22 21 20 20 19 18 17 16 16 16 14 12 12 12 11 11 11 10 9 9 9 8 7 6 6 5 5
16 15 15 16 16 14 13 12 11 9 8 8 7 7 8 9 9 9 9 8 6 4 4 3 4 5 6 7 8 9 10 11 11 10 11 14 17 18 18 17 17 18 18 19 20 21 22 25 28 29 28 28 27 26 25 25 25 25 23 22 20 19 17 16 16 15 15 15 15 13 11 11 10 10 11 10 9 8 8 7 7 6 6 5 5
17 16 16 16 16 15 14 14 13 12 11 9 8 8 8 8 8 8 7 6 5 4 4 3 2 3 4 4 5 7 9 10 11 11 13 15 16 16 15 14 14 14 15 17 18 20 21 24 26 26 26 26 25 25 25 26 25 25 24 22 20 17 16 15 15 15 14 14 14 12 11 10 10 10 10 10 9 8 7 7 7 6 6 6 6
18 19 18 17 16 15 15 15 15 14 12 10 10 10 11 11 9 7 7 6 4 2 3 3 3 3 3 3 4 6 7 8 9 10 11 12 12 12 12 12 13 13 14 15 16 18 20 22 23 24 24 24 23 23 25 25 25 25 24 22 19 18 17 16 15 15 14 14 14 12 11 10 11 10 10 9 8 7 7 7 7 7 7 7 7
19 19 19 18 18 18 17 17 18 20 19 18 16 14 14 14 12 10 9 7 5 3 1 1 2 3 4 5 5 5 5 6 7 8 9 10 11 11 12 13 13 14 14 14 15 16 18 20 21 22 22 22 22 23 25 25 25 25 23 21 19 19 18 16 15 14 14 14 13 12 11 11 11 10 9 8 7 7 7 7 8 8 7 7 7
Wind_Direction
200 202 204 204 206 209 211 213 215 216 216 217 217 218 220 221 222 223 224 226 227 228 229 230 232 232 229 228 230 232 234 235 234 235 234 234 233 232 232 232 231 231 234 236 238 240 240 240 241 244 247 247 243 240 239 239 237 234 236 234 229 230 227 220 233 242 237 250 259 259 259 251 240 237 229 220 232 244 252 261 266 268 269 278 298
200 202 202 202 205 207 208 210 213 215 215 215 215 216 218 221 222 222 222 225 227 227 229 231 232 232 229 228 230 232 234 234 234 234 233 233 232 231 231 232 230 230 232 234 236 239 240 239 239 241 244 243 240 237 235 234 235 233 234 233 229 231 232 225 226 240 245 249 253 254 254 246 236 236 232 224 228 238 244 248 250 252 266 283 296
200 201 202 202 204 204 205 206 209 212 212 212 212 213 216 219 222 222 222 223 226 227 229 230 231 232 230 230 230 230 232 232 232 233 233 233 232 231 231 231 230 230 231 233 234 236 238 237 236 238 241 240 237 236 234 232 233 232 233 234 232 233 238 236 230 236 246 245 242 244 244 240 236 236 236 231 229 232 232 231 236 245 263 280 290
199 199 201 202 201 201 203 204 206 208 210 211 212 211 212 215 219 221 220 219 222 226 228 229 230 231 230 230 230 230 230 230 230 231 233 234 233 233 233 233 232 231 232 233 234 234 235 235 234 235 239 239 237 237 235 234 233 232 231 233 234 234 240 243 238 236 243 247 244 241 236 235 233 229 230 230 231 237 238 237 241 249 262 277 290
198 198 199 200 199 200 203 204 205 207 208 210 211 211 211 211 213 217 217 215 218 224 226 226 228 229 229 230 230 230 230 229 229 230 232 233 234 234 234 235 234 234 234 234 234 235 235 235 234 235 237 237 234 235 237 237 235 232 230 229 232 234 238 242 241 237 238 241 241 243 242 239 236 237 239 235 233 242 249 251 251 252 260 275 290
198 197 196 197 198 200 202 203 205 206 206 208 209 209 209 208 209 212 214 213 214 219 223 225 226 228 229 230 231 231 230 228 228 229 230 232 232 233 234 236 236 236 236 236 236 236 237 236 236 236 237 236 233 234 239 240 236 233 231 228 230 233 234 236 237 235 236 237 238 241 243 240 238 243 248 244 238 239 242 250 254 253 260 278 294
196 195 195 196 198 199 200 202 204 203 203 204 206 206 207 207 208 209 211 212 212 214 219 223 226 227 229 230 230 231 229 228 228 229 229 230 231 232 232 234 235 236 237 237 237 237 238 238 237 237 239 239 236 236 239 240 237 236 235 232 231 232 230 230 232 232 231 232 234 236 238 240 240 244 250 250 247 245 243 245 251 253 264 281 293
191 192 194 196 198 198 199 201 201 200 200 202 204 204 205 207 207 208 209 210 211 213 216 221 225 226 228 230 230 230 229 227 227 227 227 228 230 231 232 233 233 235 237 237 237 237 238 238 238 238 241 241 239 238 240 241 240 237 237 234 231 230 228 224 225 227 228 228 231 234 234 237 240 241 245 245 243 244 244 244 248 257 275 290 297
190 192 193 197 200 201 201 200 199 199 200 201 203 204 204 205 206 208 210 210 210 212 214 218 222 224 226 228 229 228 227 226 226 226 226 227 228 229 231 232 232 232 235 236 236 237 238 238 238 239 241 243 242 241 242 245 243 239 238 236 231 228 225 222 222 222 224 227 229 231 231 232 234 233 234 237 237 238 238 237 245 260 278 293 300
196 197 199 203 206 206 205 203 200 201 202 204 206 205 204 205 207 209 213 212 209 210 212 215 219 221 223 225 226 225 225 226 227 227 226 226 227 228 228 230 231 231 233 233 234 236 238 238 239 240 242 244 245 244 245 247 246 242 241 240 237 231 224 220 222 222 224 228 230 231 234 235 233 230 232 238 238 234 227 224 236 256 274 285 293
198 201 206 208 206 206 206 206 204 204 205 205 206 206 205 206 209 211 213 212 211 213 215 215 215 217 220 223 223 222 223 227 227 227 228 227 226 226 227 229 229 230 231 231 232 234 237 238 239 240 241 242 244 247 247 247 246 245 245 244 243 240 233 225 224 223 225 231 233 233 236 240 240 237 239 242 236 227 223 226 240 254 264 275 281
199 204 208 206 202 203 204 204 204 204 204 204 205 207 207 207 209 210 211 211 212 213 215 216 216 216 218 220 221 220 224 228 228 227 228 228 226 225 226 227 227 227 229 230 231 233 235 236 236 237 240 241 242 245 247 246 246 246 246 246 246 246 243 238 235 230 228 233 237 237 238 242 244 242 241 237 226 220 224 231 241 253 265 279 285
201 205 205 200 201 203 202 201 202 203 203 204 203 204 206 207 209 209 210 211 211 212 213 215 217 218 217 218 219 219 223 228 229 228 228 229 227 224 223 225 226 227 229 230 230 232 233 233 233 235 240 241 238 238 242 244 245 245 246 246 247 248 248 247 245 242 240 242 243 244 246 246 245 244 241 235 222 209 210 219 229 252 273 281 285
202 203 201 200 202 202 200 200 201 201 201 201 200 202 204 207 209 210 209 209 209 210 212 213 215 217 217 217 219 220 223 227 229 228 229 229 228 224 222 223 226 227 229 231 231 232 233 233 233 234 237 237 235 234 235 237 239 241 242 243 245 246 248 248 248 247 247 246 247 251 254 252 248 247 245 240 228 213 211 229 247 263 268 271 277
205 204 201 201 201 200 200 200 199 198 198 197 198 201 204 207 208 208 208 209 209 209 211 213 215 217 217 217 220 222 225 228 229 229 229 229 227 224 221 222 224 227 229 232 233 234 235 235 235 234 234 235 236 234 233 234 233 232 232 237 241 242 243 246 247 247 246 245 247 252 254 254 253 250 243 237 231 227 233 249 259 262 264 268 275
205 204 201 201 201 200 200 199 197 196 195 195 198 201 203 205 206 205 206 209 211 211 212 214 215 216 216 216 219 223 225 228 229 229 228 228 225 222 220 221 223 224 228 232 234 235 236 235 235 233 231 235 239 237 233 233 232 227 224 228 235 237 238 242 245 244 244 245 247 249 252 256 259 256 248 244 240 240 244 247 247 246 254 267 276
203 202 202 200 198 198 198 196 196 195 194 196 200 202 204 205 204 203 204 208 211 213 215 216 215 216 217 216 218 221 224 227 228 228 227 226 222 219 218 220 221 223 226 231 234 234 235 235 234 233 231 234 239 239 233 230 227 224 222 223 229 232 234 240 246 245 245 248 251 253 256 259 258 254 252 249 243 237 231 226 235 244 249 266 279
202 203 203 198 195 197 197 195 196 195 195 199 202 203 205 205 204 204 206 210 212 215 217 218 215 215 216 216 218 220 221 225 227 226 225 224 220 217 216 218 220 223 225 229 231 232 234 234 233 231 231 234 238 236 230 224 220 219 219 219 223 227 228 231 238 241 241 244 249 252 253 255 251 244 241 236 230 228 221 220 241 252 252 267 278
204 204 202 197 197 201 201 200 201 199 198 201 202 202 203 204 203 205 208 212 214 215 219 221 220 218 218 218 220 221 220 223 226 225 223 222 219 216 215 216 220 222 223 225 226 228 232 233 232 231 231 234 236 233 224 217 216 218 217 214 218 222 222 220 220 221 221 223 228 233 236 240 238 229 219 214 215 217 216 225 245 247 247 260 262
204 201 197 195 200 203 203 203 204 203 202 203 202 203 204 203 204 205 208 213 216 217 220 223 224 225 223 221 222 222 219 221 224 223 221 219 217 214 213 215 218 220 221 221 220 221 225 228 231 231 230 231 232 227 219 214 215 216 214 210 213 217 214 209 208 205 204 206 209 211 214 217 213 206 203 205 208 211 215 223 232 225 227 241 236
204 201 200 199 201 203 204 204 204 205 206 206 203 204 206 205 204 206 208 211 214 217 219 221 223 225 224 223 225 225 220 218 220 221 218 217 216 212 211 214 216 215 216 217 217 218 219 220 226 229 227 226 226 220 214 211 211 212 214 214 215 216 210 201 198 198 201 201 197 193 192 191 188 190 197 203 207 212 215 217 214 206 210 224 231
203 203 203 202 201 202 203 204 205 206 206 204 201 204 207 207 206 207 207 208 211 216 218 219 221 223 220 219 224 227 224 220 219 219 218 216 214 212 212 216 216 212 212 215 215 216 217 217 223 227 224 221 218 212 207 205 204 208 214 215 216 218 211 195 185 185 188 186 181 180 183 183 184 192 202 207 209 209 207 203 198 195 203 217 233
202 201 202 202 203 203 203 203 204 204 203 203 204 205 205 206 207 208 207 208 211 215 218 219 222 223 219 217 221 223 221 218 217 218 217 214 213 213 215 217 216 213 212 215 213 211 214 220 224 226 221 214 209 202 198 197 198 203 207 208 209 211 202 185 176 178 179 178 177 179 182 185 191 200 204 205 202 196 190 188 189 192 206 226 242
201 200 201 202 203 203 203 203 203 203 202 203 205 206 204 205 209 211 212 213 217 221 223 223 225 228 227 224 223 220 216 215 216 217 216 214 213 215 215 215 216 214 214 216 216 216 218 222 224 222 214 206 200 195 194 194 196 198 199 198 199 197 191 180 174 173 174 177 178 180 186 194 199 201 197 191 187 186 185 186 193 202 218 240 256
199 200 201 202 203 203 202 202 203 204 204 202 203 206 205 205 209 212 214 217 221 225 227 225 226 230 232 231 230 227 223 219 217 216 215 214 214 215 214 213 214 214 213 214 217 219 220 221 220 214 204 197 192 190 192 195 197 196 193 191 191 190 186 178 172 171 175 179 181 186 192 196 195 192 188 184 184 188 190 191 202 219 237 254 266
197 199 200 202 203 202 201 202 204 205 205 204 206 208 207 208 210 211 214 219 222 225 228 227 226 228 230 232 233 229 225 224 221 217 216 215 215 214 212 210 211 212 211 210 211 212 214 216 212 201 192 188 186 186 190 194 196 194 190 188 187 184 179 174 171 173 179 183 186 189 189 186 184 187 189 187 187 189 191 193 205 221 232 244 262
194 199 199 201 203 202 202 204 205 205 206 208 211 212 211 212 214 213 215 221 225 226 228 230 229 228 231 233 231 223 219 221 220 217 214 213 214 213 211 210 209 207 204 203 203 202 203 205 200 190 184 183 183 186 190 191 188 186 184 184 183 180 178 177 175 178 184 187 185 182 176 175 180 185 186 187 189 192 195 202 211 215 216 230 260
174 185 192 198 203 205 208 210 210 208 209 210 213 215 214 215 218 218 217 219 223 224 225 226 227 228 230 230 224 217 217 218 217 215 212 210 210 210 208 207 205 199 195 195 195 192 190 187 183 180 178 177 177 181 184 182 180 179 179 180 180 180 180 181 181 184 188 184 178 174 173 175 179 181 183 189 195 197 204 216 225 224 223 243 270
100 109 129 164 187 201 210 213 212 213 214 212 213 215 217 219 222 224 222 221 224 230 234 234 233 233 235 232 222 211 213 218 221 220 215 210 208 206 205 205 201 194 191 190 185 178 173 170 168 168 168 167 169 172 174 174 174 175 177 178 181 182 184 185 185 187 187 182 177 175 176 178 179 180 188 196 196 199 215 227 230 231 236 253 269
79 78 77 77 98 144 182 198 205 211 216 215 212 209 214 223 228 231 231 229 231 238 244 247 247 246 247 243 235 228 229 231 230 223 215 210 207 205 205 204 198 190 186 184 176 167 164 163 162 162 163 165 168 170 171 171 172 172 175 178 178 179 183 185 186 188 187 183 180 178 177 180 183 186 195 203 199 202 220 226 223 226 235 251 266
79 76 74 71 71 76 91 105 119 144 162 167 167 170 188 224 239 248 253 253 255 259 261 263 263 260 256 252 248 243 240 239 235 225 215 210 208 207 205 199 190 185 182 176 167 162 163 164 161 160 161 164 169 172 172 172 173 172 176 179 176 176 182 185 186 189 189 183 180 180 181 186 189 192 202 210 206 202 207 207 206 218 234 249 264
74 74 74 73 71 69 75 81 86 96 103 102 110 121 125 151 269 286 281 275 278 277 275 274 271 265 259 256 255 253 248 242 235 226 217 211 208 206 201 191 183 182 179 171 164 163 167 165 161 160 161 163 169 174 173 173 175 175 175 175 174 176 182 184 184 187 187 182 182 185 187 190 194 198 206 213 211 201 193 192 198 212 229 247 258
69 71 70 73 75 76 79 84 90 99 103 104 108 110 107 104 86 41 14 357 343 326 307 292 280 271 265 260 256 254 251 243 234 224 215 209 206 201 193 186 182 179 172 166 162 165 167 165 162 164 165 165 169 173 174 174 176 175 173 174 175 177 182 185 185 186 185 185 187 188 190 193 196 202 210 214 212 205 197 194 200 210 228 247 256
73 74 78 84 85 85 89 94 100 106 108 112 115 111 105 103 95 71 32 5 1 357 351 343 325 299 285 277 270 262 254 245 233 221 212 206 202 196 187 179 175 171 166 163 163 164 165 164 163 164 167 169 171 173 174 175 173 171 173 175 174 172 177 183 187 187 187 190 192 192 193 195 198 207 214 211 205 205 204 202 204 210 226 246 256
80 79 81 86 87 88 93 97 99 101 102 107 111 108 102 99 92 77 26 339 341 339 338 343 344 334 318 307 296 283 268 251 233 218 207 199 192 183 170 160 159 160 161 164 166 166 165 165 166 167 168 169 171 172 173 174 172 171 172 173 170 172 179 185 187 187 188 193 195 193 193 195 200 208 211 204 200 204 206 205 208 212 223 243 262
77 80 81 84 88 93 97 98 98 100 102 106 107 100 89 83 79 65 36 15 355 340 344 353 0 5 357 336 313 298 283 263 240 218 200 186 175 165 154 150 151 151 150 156 162 165 165 166 166 166 165 166 171 174 173 172 171 172 174 174 175 179 183 185 185 187 189 191 191 191 192 192 195 201 204 201 201 206 205 203 205 208 218 241 270
66 72 78 84 92 98 100 98 95 95 98 103 102 90 74 67 63 58 54 44 19 10 23 30 39 45 39 23 3 343 310 272 244 216 190 174 165 158 150 146 145 141 140 149 158 163 167 168 165 162 162 165 171 174 174 172 173 174 175 176 177 180 181 182 186 192 194 190 186 187 188 187 188 194 199 201 202 202 200 197 197 200 211 236 269
60 64 73 84 93 99 101 101 94 89 90 92 89 81 72 67 64 64 69 65 53 56 67 74 77 74 66 52 45 48 54 65 163 195 181 161 147 141 140 139 139 139 141 151 161 165 170 170 164 162 164 168 173 177 178 175 173 172 173 175 178 182 184 185 190 195 192 183 178 178 179 180 185 192 200 205 204 200 194 192 195 201 210 227 255
61 64 71 79 86 90 93 90 86 84 84 84 83 82 80 76 72 71 77 75 69 72 81 90 95 96 97 89 72 69 70 68 61 60 106 110 106 114 125 130 134 137 143 154 164 169 172 171 168 169 173 175 177 179 177 173 170 171 174 177 179 181 181 179 180 182 179 173 170 171 174 182 189 193 202 207 204 197 192 193 198 207 217 236 259
59 60 62 68 76 82 84 83 83 82 81 81 83 86 90 89 81 70 68 69 67 66 72 84 95 102 113 108 90 82 82 83 77 68 72 88 102 117 126 128 133 140 148 158 166 171 173 175 175 175 176 177 178 176 173 172 171 172 175 176 173 171 169 167 168 171 170 169 171 173 179 188 192 193 202 207 203 197 197 199 203 206 217 243 265
59 58 56 60 70 79 82 82 83 83 82 83 84 89 95 94 87 76 69 65 60 55 53 55 60 76 106 113 102 95 97 105 108 107 104 104 110 120 127 133 140 146 152 161 168 172 174 175 174 174 175 177 177 175 172 172 171 170 170 169 166 163 162 162 165 170 171 173 177 181 187 193 194 197 203 205 202 202 204 205 208 210 215 238 259
57 57 55 54 58 65 72 79 84 89 94 96 93 91 93 92 90 89 84 76 68 61 54 45 44 58 91 109 106 105 111 119 122 124 128 131 131 132 136 142 147 153 161 168 172 175 175 174 174 175 176 176 175 172 170 169 167 166 165 164 162 160 161 163 168 173 176 179 184 187 191 195 197 202 207 204 202 207 208 207 210 212 218 239 257
59 59 58 57 57 55 57 66 76 82 88 92 91 91 91 91 95 99 98 94 89 84 76 65 60 68 84 98 100 103 111 119 123 124 129 134 137 140 144 148 153 160 166 171 173 175 175 175 176 178 177 174 172 170 168 167 166 164 164 164 161 160 162 166 172 177 179 183 187 190 194 198 201 206 210 208 208 210 207 206 208 210 218 239 257
58 59 59 60 61 58 56 58 62 64 70 78 84 88 93 94 97 99 99 101 101 93 84 78 75 79 87 97 99 97 99 106 112 116 121 128 133 138 144 150 156 163 168 172 174 176 177 177 178 178 175 171 169 169 169 167 166 165 165 164 162 162 166 171 175 178 181 186 190 194 199 201 204 208 210 208 209 208 204 203 205 207 216 238 258
42 47 51 52 55 56 54 52 51 51 56 65 73 77 82 87 94 99 103 107 111 107 95 86 83 87 90 94 98 101 103 108 114 119 124 131 138 146 153 159 164 169 173 176 178 178 179 179 178 175 171 170 170 170 169 168 166 166 165 164 164 168 172 174 176 179 184 188 193 198 202 204 207 210 209 205 204 204 203 202 201 203 216 238 255
37 38 42 44 47 48 47 45 44 41 39 46 57 63 65 68 75 84 94 100 107 114 114 109 101 97 96 98 103 108 112 117 123 128 135 143 150 154 158 163 168 173 178 179 179 179 181 180 177 173 172 172 171 171 170 168 167 166 166 166 168 172 175 178 179 182 187 192 196 200 203 205 206 208 206 203 200 199 200 202 202 206 223 240 252
40 40 41 43 43 43 42 41 40 36 31 33 43 54 62 66 68 70 75 80 84 92 104 109 106 101 104 113 120 122 125 131 133 133 140 150 155 156 157 159 163 169 175 178 179 180 181 180 177 176 175 174 173 173 172 171 169 169 169 170 173 177 180 182 184 187 194 200 204 205 204 204 204 201 200 200 199 196 200 207 211 215 223 232 236
37 37 37 38 40 39 35 31 30 30 29 28 33 47 62 71 76 78 80 81 83 88 93 93 94 98 105 117 126 130 136 141 140 138 144 153 157 157 157 158 161 165 169 173 177 179 179 179 180 179 178 178 177 177 176 175 175 175 176 177 180 182 183 184 188 194 201 207 211 210 206 204 202 196 193 194 197 200 205 211 213 209 206 207 213
37 35 33 34 36 37 34 29 27 29 31 29 27 30 40 51 64 78 83 79 80 97 108 108 104 102 102 110 124 133 138 142 141 142 147 153 157 159 160 161 164 166 167 170 175 178 179 181 183 184 183 183 183 183 183 183 183 183 184 185 185 185 183 186 193 200 204 209 212 209 203 198 194 190 188 191 198 204 209 209 205 197 189 188 198
40 40 38 35 36 40 41 39 38 38 38 36 34 33 33 34 38 51 64 65 68 102 126 130 139 144 149 151 140 127 126 133 140 144 148 152 154 158 159 160 162 166 167 169 173 177 180 184 186 187 188 190 191 191 192 191 190 192 194 193 188 184 185 192 198 202 206 210 210 204 195 191 190 189 191 196 200 202 204 202 195 188 184 186 193
42 42 42 40 42 45 46 46 46 47 48 47 44 42 42 40 37 38 46 50 42 17 338 241 196 189 188 185 168 141 131 138 144 148 152 156 157 158 159 160 162 164 165 166 171 176 182 187 190 192 195 198 200 201 201 200 199 199 199 196 188 186 191 197 200 202 204 206 202 194 187 187 190 192 195 199 200 200 199 197 190 184 183 186 190